RH
18 19 19 19 18 18 17 15 14 12 11 10 10 10 9 9 8 8 8 8 8 8 9 8 8 8 8 8 7 7 7 7 8 7 8 8 8 9 9 9 9 8 8 8 7 8 9 9 9 8 8 9 10 12 13 11 34 76 87 87 98 100 102 100 99 102 98 92 83 83 98 103 101 101 99 101 99 101 94 60 37 31 28 24 21 26 30 33
18 19 19 19 19 19 19 18 17 16 14 12 10 10 9 9 9 8 8 8 8 7 8 8 8 8 8 8 8 7 7 7 7 8 8 8 8 8 9 9 8 9 8 7 8 8 9 10 10 9 8 9 10 13 13 11 37 67 61 71 94 99 103 99 100 103 90 79 78 86 98 101 100 101 100 100 100 101 99 70 42 36 31 26 22 25 30 33
19 20 20 19 19 18 18 17 18 18 17 16 14 12 10 10 9 9 9 8 8 8 7 8 8 9 9 8 8 7 7 7 7 8 8 7 8 8 9 9 8 8 8 8 8 8 8 9 10 10 8 9 10 11 16 10 20 44 61 86 97 99 104 98 102 101 87 80 81 91 100 101 100 100 101 100 101 100 103 81 48 44 38 26 25 25 29 32
18 18 18 18 18 18 18 17 16 16 16 17 16 15 13 11 10 9 9 9 8 8 7 7 8 8 9 8 8 8 7 7 7 7 7 8 8 9 8 8 9 8 8 8 8 8 8 9 10 11 9 8 9 11 14 9 31 73 91 100 98 99 103 98 105 100 87 85 85 96 101 99 101 100 100 100 101 99 104 88 55 54 44 25 26 26 27 30
18 17 16 15 16 16 16 17 16 16 15 15 15 16 16 14 12 11 10 9 8 8 8 7 7 7 8 9 8 8 8 7 7 7 7 8 8 9 8 8 9 8 8 8 8 8 8 9 9 11 10 8 8 12 13 9 45 97 96 93 98 99 102 99 105 102 89 86 87 99 98 95 101 100 100 100 101 100 102 95 74 66 48 28 28 26 26 28
17 16 16 15 14 14 14 14 15 15 15 15 14 14 15 15 14 13 11 10 9 9 9 8 7 7 7 9 9 8 8 8 7 7 7 8 8 8 8 9 9 8 8 8 8 8 8 8 9 11 10 9 8 9 14 10 42 93 88 85 96 97 102 100 103 103 97 93 85 97 100 94 100 99 100 100 100 101 100 99 91 77 54 39 33 26 26 26
18 17 16 15 15 14 13 13 13 13 13 14 14 14 13 14 13 14 13 12 11 9 9 9 8 7 7 7 9 9 9 9 6 6 7 7 8 8 9 9 9 9 8 8 8 8 8 8 8 11 10 9 9 8 15 12 32 77 79 76 91 100 103 99 102 101 102 102 81 89 104 97 100 100 99 100 100 101 99 100 97 84 65 54 43 30 28 26
20 19 18 18 17 16 15 14 13 12 12 12 12 13 13 13 13 13 13 13 13 12 10 9 9 8 8 7 8 9 10 9 7 7 7 7 8 8 9 9 9 9 8 8 8 8 8 8 8 10 11 10 8 8 15 15 25 56 74 86 95 101 102 98 103 103 105 106 84 86 102 101 100 99 100 100 100 101 99 101 100 90 73 66 59 39 29 27
19 19 19 19 19 18 17 16 15 13 12 12 11 11 12 12 13 12 12 13 13 13 12 10 9 8 8 8 7 8 10 9 8 7 7 7 8 8 9 9 9 9 8 8 8 8 8 8 8 8 10 11 10 11 15 18 23 37 67 94 92 91 103 101 101 105 103 101 97 97 99 103 95 86 97 102 100 102 101 101 100 96 79 73 77 56 34 28
18 18 18 18 19 19 19 18 17 17 15 14 12 11 11 11 11 12 12 12 12 12 13 11 10 9 8 9 8 8 9 10 8 8 8 6 7 8 8 9 9 9 9 8 8 8 8 8 8 8 11 13 12 12 16 19 22 27 51 79 82 89 105 101 99 106 96 87 99 105 100 102 89 79 93 100 99 100 100 101 100 101 88 82 93 74 45 34
20 20 20 19 20 20 20 20 19 19 18 17 16 14 12 11 10 10 11 11 12 12 12 12 12 10 9 9 9 8 9 9 8 8 8 7 7 8 8 9 9 10 9 8 8 7 8 8 8 9 11 14 13 11 12 15 20 24 39 63 73 87 103 100 100 105 93 78 82 95 100 101 94 91 98 99 98 98 99 101 100 101 94 94 100 80 57 49
22 22 22 22 22 22 22 22 21 20 20 18 17 16 14 13 11 10 10 10 11 12 11 11 12 12 10 9 9 9 9 8 8 8 9 8 7 8 9 9 8 9 9 8 8 8 8 7 9 9 10 14 13 10 12 15 21 20 36 62 62 75 100 101 102 103 94 82 71 74 92 101 99 98 100 98 94 93 98 101 101 99 95 99 96 83 73 63
24 25 25 25 24 24 24 23 23 21 21 19 17 16 15 14 13 11 10 10 10 11 11 11 11 12 12 10 9 11 11 8 8 8 9 9 7 7 8 9 9 9 10 9 8 8 8 8 9 9 11 15 12 12 16 18 24 19 32 61 62 73 98 101 105 105 95 89 74 63 81 101 101 98 100 98 94 96 101 100 100 98 97 97 91 91 88 73
28 30 30 30 29 27 26 24 23 21 20 19 17 16 15 14 14 13 11 10 9 9 10 11 11 11 12 11 9 12 13 9 8 8 9 9 8 8 7 9 9 8 10 10 8 7 8 9 9 10 13 15 13 15 17 17 23 20 21 43 65 82 92 93 101 107 98 87 74 59 70 97 100 96 100 101 101 100 101 100 98 99 99 98 96 98 96 85
25 27 27 27 27 26 25 23 21 20 19 18 17 16 15 14 13 13 12 11 10 9 9 10 11 11 11 12 11 12 13 10 8 7 8 9 9 8 7 9 9 9 10 10 9 7 8 9 9 13 14 13 14 14 13 13 17 19 16 25 46 67 81 87 93 105 99 79 74 61 61 93 103 97 101 101 100 99 101 101 95 97 101 99 100 100 99 97
22 22 22 22 23 23 22 22 20 19 18 16 15 14 14 14 13 13 13 12 11 10 9 9 11 11 11 11 12 12 12 11 9 8 8 9 9 9 7 8 9 9 9 10 10 8 8 10 10 14 14 11 15 15 11 13 15 17 19 21 26 40 67 85 86 96 89 69 76 69 60 89 104 99 102 100 99 101 101 96 88 94 102 101 101 100 101 97
23 23 23 23 23 23 22 21 20 18 16 15 14 14 13 13 13 12 12 12 12 11 10 9 10 11 11 11 13 13 11 11 10 9 8 9 9 9 8 8 9 10 10 10 11 9 8 9 10 12 13 12 15 15 12 13 18 20 21 24 22 26 53 80 86 95 89 66 64 66 62 86 106 104 103 101 100 101 99 93 90 96 102 101 99 101 101 95
24 24 24 24 24 23 22 21 19 17 16 15 14 13 13 12 13 13 12 12 13 12 11 10 10 11 11 11 13 13 12 10 10 9 9 8 8 9 9 8 8 10 11 11 11 10 9 9 9 10 12 14 15 16 15 15 20 24 23 24 25 23 40 70 88 101 100 72 54 59 63 79 98 94 88 97 102 100 99 97 97 101 102 99 98 100 101 98
26 26 25 25 23 22 21 19 17 16 16 15 14 12 12 12 13 13 13 13 13 13 12 12 10 10 11 12 13 13 13 11 10 10 10 9 8 9 9 9 8 9 11 11 11 11 9 8 9 11 15 17 19 18 18 16 17 22 21 21 23 23 29 51 80 102 101 72 48 52 62 76 88 81 81 96 102 100 99 99 101 101 97 97 99 97 96 100
27 27 25 24 22 20 18 16 15 15 15 14 13 12 11 11 12 13 13 14 14 14 13 12 11 10 10 12 13 12 13 13 11 10 11 10 9 9 9 9 8 9 11 12 11 11 10 9 9 14 18 21 22 20 20 18 16 19 19 18 20 21 21 34 67 96 92 66 46 44 59 80 93 93 96 101 102 102 101 99 101 99 96 97 92 88 95 103
29 27 26 24 21 19 16 15 14 14 14 13 13 14 13 11 12 12 13 14 14 14 14 13 12 11 11 12 13 13 13 13 12 10 11 12 11 10 9 10 9 8 10 13 12 11 11 10 10 14 19 22 21 18 19 19 17 17 18 20 19 20 18 22 51 82 80 59 43 40 54 76 95 102 101 101 100 98 98 102 103 97 98 99 88 89 101 102
29 27 26 23 20 17 15 15 14 14 14 14 15 16 16 15 13 12 13 14 15 15 14 14 14 12 11 12 13 14 14 14 14 11 10 12 12 11 10 10 11 9 9 12 12 12 13 12 10 12 17 22 20 16 18 19 17 15 17 22 21 24 25 22 34 59 69 56 39 41 50 62 84 97 96 95 85 77 81 94 103 100 100 103 95 97 102 99
29 27 25 22 18 17 17 16 16 16 16 16 17 18 19 19 17 15 13 14 15 16 15 15 15 14 12 13 13 14 14 15 16 13 11 12 13 11 10 10 11 10 9 11 13 12 15 16 12 11 15 21 21 16 17 20 20 16 17 22 21 27 38 37 29 37 54 52 38 37 43 50 61 71 81 83 72 72 80 88 99 102 100 103 100 99 100 99
29 27 24 21 19 19 19 19 18 18 19 20 21 23 25 25 23 20 16 15 14 15 16 16 16 15 14 13 13 13 14 15 16 15 13 12 14 13 11 10 11 12 10 9 13 13 16 20 15 10 13 20 22 17 17 21 22 19 20 25 27 33 45 47 35 31 41 45 36 31 45 62 54 44 63 80 81 90 97 95 99 101 100 101 100 99 100 101
29 26 23 21 22 22 22 21 21 22 24 27 29 30 32 32 31 27 21 17 16 15 16 17 17 17 16 15 14 14 15 17 16 16 15 12 13 14 12 11 11 12 12 10 12 14 16 20 18 12 11 17 21 18 17 22 25 26 25 27 31 37 44 45 36 32 37 40 36 30 43 63 56 51 73 93 96 96 97 99 100 100 102 102 101 100 99 100
28 25 24 25 26 25 24 24 26 29 32 36 37 36 36 35 34 32 27 22 19 16 14 16 17 17 17 16 15 15 16 19 18 16 16 13 12 14 13 12 11 12 12 10 11 13 16 19 20 16 10 13 20 18 18 23 28 32 30 26 27 33 40 43 38 35 40 42 37 30 34 44 51 67 88 100 102 97 96 101 103 103 102 95 92 99 102 101
27 25 27 29 29 28 28 29 33 40 44 45 43 40 37 34 32 31 30 27 24 18 14 15 16 16 17 16 18 17 16 19 18 17 18 15 12 13 14 13 12 11 12 11 11 13 16 18 20 20 13 11 17 18 19 26 31 35 35 31 29 31 35 40 43 42 42 44 39 31 31 36 43 55 71 80 86 95 101 104 104 103 99 83 73 91 103 98
26 27 30 32 31 30 32 38 44 48 52 51 45 40 35 30 28 26 26 27 25 22 17 15 14 14 16 17 19 18 16 17 18 18 18 17 14 13 14 14 13 12 12 12 12 13 15 16 19 23 17 11 13 18 22 27 33 38 40 35 28 27 30 35 44 44 39 40 40 33 30 34 36 38 45 48 64 93 103 102 103 99 98 81 58 81 103 91
27 30 32 33 33 34 41 52 55 54 54 50 42 35 29 25 22 20 20 21 23 23 21 18 14 13 15 17 18 16 16 17 18 18 18 17 16 14 14 14 14 12 12 12 12 12 15 16 18 21 21 15 12 16 21 26 35 41 40 33 26 26 26 27 35 40 39 39 40 35 32 32 32 33 32 32 57 87 86 92 106 95 94 88 51 63 97 86
30 34 34 34 35 41 52 60 60 56 52 44 35 28 23 20 17 17 16 16 19 20 21 21 17 14 14 15 17 18 18 17 16 19 20 16 16 14 13 13 14 13 12 13 14 14 16 17 17 19 22 20 14 13 18 24 34 41 39 35 34 32 26 25 32 38 42 44 43 40 38 36 33 34 34 34 50 61 54 73 96 82 83 98 72 63 84 77
33 37 37 34 39 53 62 64 60 54 47 37 30 24 20 18 16 15 15 14 16 17 19 21 19 16 15 15 17 19 20 18 17 21 22 18 17 16 13 13 16 15 14 14 16 18 20 19 18 17 21 22 17 13 14 21 30 36 37 37 40 38 29 28 31 35 41 45 44 44 44 43 38 37 41 40 42 41 39 49 63 58 60 84 91 81 76 65
36 40 39 37 50 68 72 68 64 54 43 34 27 23 20 19 16 13 13 13 13 15 16 19 20 19 18 16 18 19 20 18 17 21 22 19 18 19 16 14 15 17 16 16 17 18 21 21 18 16 18 21 23 19 13 16 24 30 35 37 40 39 31 29 28 29 38 43 43 42 43 46 42 40 41 42 43 43 39 34 36 43 44 60 91 97 85 75
38 41 41 45 63 77 75 71 64 51 40 32 27 25 22 19 15 12 12 12 12 13 14 17 19 20 20 20 19 18 18 18 19 22 23 20 18 20 21 18 16 17 16 17 17 18 20 20 18 17 17 18 25 27 17 14 19 24 31 36 39 38 33 31 29 30 38 43 42 41 41 43 42 41 40 41 48 48 42 37 36 40 39 48 76 90 91 94
39 42 46 55 75 86 81 73 62 48 39 32 27 27 24 18 14 13 12 11 11 12 13 15 17 19 21 22 21 19 18 20 23 24 24 23 19 21 25 23 22 20 17 17 17 19 21 20 17 19 20 17 21 27 21 15 16 20 26 31 35 38 36 37 36 35 41 43 42 41 39 38 39 41 42 40 45 46 41 41 41 40 40 45 58 65 78 97
39 44 54 68 84 88 81 71 59 48 40 32 28 28 23 17 14 14 13 12 11 11 11 13 15 17 19 22 22 19 16 19 25 27 27 26 23 23 28 31 33 28 21 18 16 17 22 22 19 21 24 20 18 23 23 18 15 15 20 26 31 35 36 38 40 40 43 44 43 39 35 35 38 40 42 40 41 41 39 40 39 37 40 45 47 44 55 82
40 45 61 80 90 85 78 72 61 50 41 32 30 28 22 17 14 15 14 13 12 11 11 12 13 16 18 20 22 21 17 17 23 29 30 28 25 26 28 34 41 34 22 19 17 15 19 20 18 20 24 23 20 21 24 24 21 15 15 20 25 31 33 35 38 40 42 44 42 37 33 36 39 38 42 45 43 39 39 40 38 35 36 36 37 37 40 56
41 50 71 88 93 88 82 75 62 50 40 32 30 28 22 17 15 15 14 14 14 12 11 11 12 15 17 18 21 23 21 18 21 30 33 30 28 27 25 30 36 29 19 19 18 16 17 17 17 18 20 22 21 20 22 24 24 20 15 16 20 25 29 32 34 35 38 42 40 35 35 37 38 38 40 45 43 38 37 38 37 37 36 33 33 39 40 40
43 59 81 92 92 87 81 73 61 50 39 31 32 30 22 16 15 15 14 14 14 13 12 11 11 13 15 18 21 23 25 22 21 30 36 34 30 26 22 23 26 21 16 17 19 18 18 18 18 19 20 22 22 21 19 18 22 26 22 15 16 20 24 27 31 33 33 37 38 36 36 36 37 37 38 39 37 34 35 36 37 36 35 36 33 35 39 35
49 71 87 92 90 87 82 74 62 50 38 32 35 32 22 17 16 15 15 15 14 13 12 12 12 12 13 16 20 23 27 25 23 29 34 33 30 25 21 20 21 21 18 17 19 21 22 19 17 18 21 23 24 21 19 16 19 30 33 23 15 15 19 22 26 29 30 33 35 35 36 37 38 39 39 39 37 36 37 35 36 37 35 35 34 34 36 33
61 83 90 89 91 90 84 76 62 50 41 36 37 34 25 19 17 16 15 16 15 15 14 13 12 13 13 14 17 20 25 25 23 28 32 30 28 24 21 19 20 25 27 23 20 23 24 20 16 18 20 24 26 22 20 18 16 24 32 29 22 17 17 19 22 25 27 29 32 33 34 36 37 39 41 40 39 44 49 44 37 36 34 33 32 32 32 30
69 88 91 92 95 92 87 79 66 53 43 37 38 37 28 21 19 18 17 17 17 16 16 15 13 13 13 14 15 17 22 24 24 30 32 30 30 25 22 21 20 26 33 30 25 24 24 20 16 18 20 24 28 26 23 22 19 19 22 29 39 37 25 17 17 21 23 25 28 29 31 32 35 39 39 40 46 51 53 51 45 38 33 32 31 30 31 31
72 86 92 96 95 92 89 81 68 54 42 38 40 41 33 23 21 21 18 18 18 17 17 17 15 14 14 14 14 15 19 23 25 32 35 33 34 30 25 24 24 26 30 29 26 25 25 22 16 15 18 22 28 29 27 25 22 20 19 26 41 46 38 28 20 17 20 22 24 26 28 29 32 36 35 36 48 59 54 45 45 43 35 31 30 29 31 31
76 85 92 98 97 93 89 80 66 55 46 42 43 45 39 28 22 23 21 19 19 18 18 18 17 16 15 14 14 14 16 20 24 31 36 35 36 35 30 26 26 27 29 29 28 26 26 24 19 16 16 20 25 28 27 25 24 23 21 20 26 31 37 42 33 18 16 18 20 23 26 27 27 32 36 34 37 55 64 50 38 38 38 36 33 30 31 31
78 86 93 101 99 95 91 80 69 60 53 47 46 49 45 34 25 24 24 22 21 20 19 20 18 18 16 14 15 15 15 18 21 27 34 36 36 36 33 29 27 28 31 32 33 32 29 24 20 18 18 18 23 26 24 22 23 25 24 23 24 26 35 49 45 27 17 16 16 18 21 24 25 27 34 38 33 42 60 57 42 35 35 38 39 35 32 32
80 88 96 102 99 96 93 82 71 66 59 53 51 52 49 40 30 27 27 25 23 21 20 20 19 18 18 15 15 16 15 16 19 23 30 34 35 34 33 32 32 31 31 31 33 34 31 26 21 20 21 20 19 22 23 21 22 26 28 28 26 26 34 47 47 35 21 14 15 16 16 19 23 23 27 36 38 36 41 44 39 33 32 34 39 39 36 35
81 91 100 101 97 99 96 84 75 70 63 58 56 56 53 45 34 29 29 27 26 24 21 21 20 19 19 17 16 17 16 16 17 20 25 30 32 33 31 32 35 36 32 29 29 29 30 33 31 25 23 23 21 21 22 21 21 25 28 30 29 29 31 36 42 43 32 18 13 14 14 15 18 21 22 27 33 34 33 33 31 31 31 31 34 37 37 36
85 95 102 100 97 102 101 91 81 72 64 62 62 60 56 49 38 32 32 30 28 27 24 23 22 20 20 19 18 18 17 17 17 17 21 25 28 32 32 32 33 36 35 32 29 27 27 33 37 32 29 30 28 26 25 23 22 24 27 29 31 33 32 28 32 40 37 27 21 17 14 15 16 18 19 20 23 26 28 29 30 31 32 30 30 33 34 34
89 95 100 97 96 104 106 96 85 75 66 64 67 65 59 53 42 35 34 33 30 30 28 26 25 23 22 21 20 19 18 18 18 17 18 21 24 29 32 33 33 33 35 36 33 30 28 30 33 32 32 35 33 30 32 30 23 23 27 28 30 33 32 27 26 27 27 27 28 24 20 18 17 17 18 19 21 26 27 29 34 35 32 28 27 29 30 30
92 95 96 92 91 102 108 98 87 82 72 66 69 69 62 56 46 38 37 35 33 32 30 28 27 26 25 22 21 20 19 18 18 17 17 18 21 26 30 34 34 33 35 38 37 35 33 29 28 30 31 34 34 31 32 33 27 24 26 28 30 32 30 28 28 27 25 23 23 25 28 27 22 20 20 17 18 25 30 34 38 39 37 36 36 33 29 26
94 96 95 88 83 96 108 100 92 90 78 69 72 71 64 59 49 40 39 38 35 34 33 31 30 28 26 24 22 22 21 19 19 18 18 18 18 22 27 32 34 35 36 38 39 39 36 29 26 29 33 37 39 35 33 38 37 31 27 28 29 29 27 27 30 30 27 24 21 23 29 34 34 31 26 21 19 22 25 27 31 35 41 48 52 46 35 27
94 96 96 86 77 90 107 103 98 96 81 71 76 72 64 61 52 44 43 41 38 37 35 34 34 31 29 26 25 24 22 21 20 19 18 18 18 20 24 28 32 34 35 37 38 38 36 31 26 28 35 42 47 47 45 50 53 43 32 31 30 26 25 27 29 31 29 25 22 21 23 29 36 37 32 27 28 29 26 22 24 30 35 40 46 49 47 40
94 95 95 88 77 86 104 105 102 100 84 74 79 73 64 62 54 46 44 43 41 39 38 37 36 34 32 29 27 27 25 23 21 20 20 19 19 18 20 24 29 32 34 36 37 36 35 34 29 28 34 44 55 59 51 50 62 60 44 35 33 27 24 25 26 29 29 27 25 24 23 23 28 34 36 33 33 36 34 27 24 24 25 25 27 34 41 43
Wind_Speed
18 19 19 20 21 22 23 25 26 27 27 27 28 29 31 35 37 39 40 41 41 42 42 42 42 43 43 44 44 43 43 43 44 45 45 46 46 45 46 46 46 46 47 47 46 45 43 42 41 42 44 44 44 42 39 37 31 26 27 29 29 25 19 16 15 14 16 16 13 12 9 7 9 10 12 12 10 10 6 1 6 11 15 18 20 21 23 25
20 20 21 21 21 21 22 23 24 26 28 29 29 30 30 32 34 37 40 41 42 43 43 43 43 44 44 45 45 45 44 44 45 45 46 47 46 46 48 48 47 46 48 49 47 46 45 44 43 43 45 46 46 44 42 40 33 27 27 27 29 28 23 21 18 16 18 17 15 12 8 10 12 12 14 14 13 12 9 2 4 8 13 16 19 20 21 23
25 25 24 24 24 24 24 24 24 25 26 28 30 31 32 32 33 35 37 40 42 44 44 44 45 45 45 45 46 46 46 45 45 46 47 47 46 48 49 48 48 48 49 50 49 48 47 46 45 44 46 48 47 46 43 40 34 31 30 27 29 28 25 22 20 19 18 17 17 13 11 14 14 13 15 15 14 12 9 5 2 5 11 15 17 19 20 22
29 29 29 29 29 29 29 29 28 27 27 27 28 30 32 34 34 35 35 37 40 43 45 46 46 46 46 46 47 47 47 47 47 47 48 47 47 49 50 50 49 50 50 51 52 51 50 49 48 46 47 49 49 48 45 41 35 32 33 31 28 27 25 23 22 21 20 18 19 17 16 17 14 15 15 13 14 12 10 8 2 4 9 14 16 18 19 20
32 33 33 33 33 33 34 34 33 33 32 31 30 30 31 33 35 36 37 37 38 41 44 46 47 47 47 47 48 49 48 48 49 48 47 48 48 49 50 51 51 51 52 54 55 53 53 51 50 48 48 50 51 50 47 46 41 32 32 33 29 27 25 24 24 23 22 22 21 19 19 20 18 18 16 13 14 13 11 9 3 3 8 12 15 17 18 19
35 36 36 37 37 37 37 37 38 38 37 37 36 34 33 33 34 35 37 38 39 39 42 45 48 49 49 49 49 49 49 51 52 49 48 48 49 50 51 52 52 53 54 56 57 56 55 53 52 50 49 50 52 52 50 50 46 34 31 34 33 31 25 23 25 25 24 24 24 20 19 23 23 21 18 14 13 11 10 9 6 2 5 10 14 16 17 17
37 38 39 39 40 40 40 40 40 41 41 41 41 41 39 37 36 35 36 38 40 41 41 43 46 49 50 50 50 50 51 53 52 49 49 49 49 50 51 53 54 54 56 58 59 59 57 55 54 52 50 51 53 54 52 52 49 37 33 35 36 34 27 23 25 27 26 25 26 23 19 23 24 20 18 15 11 11 10 10 9 5 4 8 13 15 15 16
37 38 39 40 42 42 42 43 43 43 43 43 44 45 45 44 42 39 38 38 40 43 44 43 44 47 50 51 52 52 52 53 53 52 52 51 51 51 52 54 54 56 57 59 61 61 60 57 56 54 52 51 53 55 54 54 52 42 36 36 36 34 29 25 26 29 29 26 27 26 22 21 22 20 19 15 11 12 12 12 11 7 7 8 11 14 14 14
39 40 40 41 42 43 44 45 45 45 45 45 45 46 47 48 47 46 43 41 41 42 45 46 45 46 48 51 53 53 53 55 57 55 54 53 53 53 53 54 55 56 57 59 62 62 62 60 57 56 53 52 54 57 57 56 54 47 40 37 36 35 32 29 28 31 32 30 27 26 23 19 20 20 19 16 13 13 14 14 12 10 11 10 12 13 13 12
43 42 42 42 43 44 45 46 46 47 48 48 47 47 48 49 50 50 49 48 45 44 45 46 47 47 47 50 53 54 55 59 59 56 56 55 54 54 54 55 56 57 57 60 63 64 64 63 59 57 55 54 57 59 59 58 56 53 46 40 38 38 36 33 31 32 34 33 29 26 22 18 19 20 20 19 15 13 15 15 13 12 12 13 15 13 11 11
44 44 44 44 44 45 46 47 47 49 50 51 51 50 50 50 50 52 53 53 52 49 47 46 48 50 49 49 51 55 58 60 60 58 58 58 56 56 56 56 57 57 58 60 64 66 66 64 61 59 57 55 58 60 60 60 58 56 51 44 42 40 37 35 33 33 34 34 32 28 23 19 19 20 20 20 17 14 16 16 14 14 14 15 14 12 10 10
43 43 44 44 45 46 47 48 49 50 52 53 54 53 52 52 51 52 53 55 56 55 52 49 49 51 52 52 51 54 59 60 62 60 59 60 59 58 57 57 58 58 58 59 64 67 67 65 63 60 58 57 59 60 61 62 61 59 56 49 46 43 39 36 35 34 34 34 33 31 27 23 21 20 19 18 16 16 18 18 17 16 16 14 13 11 11 10
43 42 42 43 44 45 46 48 50 51 52 54 56 56 55 54 53 53 53 55 57 57 57 54 52 52 54 56 53 53 58 61 64 62 60 62 61 59 59 59 59 59 58 59 63 67 68 67 66 62 60 60 60 62 64 65 64 63 61 53 49 46 40 36 36 36 35 34 34 33 30 27 24 20 18 18 18 18 19 19 17 16 15 14 13 12 11 9
43 43 42 42 42 43 45 47 49 51 52 54 56 57 57 56 55 55 54 55 57 58 60 59 57 55 55 57 56 56 59 63 66 65 63 64 63 61 61 60 60 60 59 59 61 67 70 70 68 65 63 64 63 66 69 69 68 67 65 58 51 47 42 38 37 36 36 35 35 34 33 31 27 23 21 22 22 21 22 22 18 16 16 15 13 11 9 9
46 46 46 45 45 45 46 47 49 51 53 54 55 57 58 57 57 56 56 56 57 59 60 61 61 59 58 58 59 62 61 62 66 65 64 65 65 64 63 62 61 60 60 60 61 65 71 72 70 68 68 68 67 68 70 71 71 69 66 63 56 49 44 41 39 38 37 36 35 35 35 34 30 26 23 22 23 23 22 23 20 19 19 18 15 11 10 10
49 49 49 49 49 49 49 50 51 52 53 54 55 56 57 58 58 58 58 58 58 59 60 62 63 63 62 60 63 67 65 64 66 65 66 67 67 66 65 64 63 62 61 61 61 63 70 74 73 72 72 70 68 68 70 71 71 69 66 64 60 54 47 44 40 38 39 38 37 37 37 36 32 28 24 20 22 23 22 22 21 21 23 22 17 14 12 11
53 52 51 51 51 52 53 53 54 54 54 54 54 54 55 56 58 59 60 59 59 60 61 62 65 66 66 64 66 70 69 67 67 66 67 69 69 68 67 66 64 63 62 61 61 63 69 75 77 76 75 72 70 70 71 72 71 69 68 66 63 59 52 47 42 38 41 41 40 39 39 38 34 30 27 22 22 23 23 23 22 22 22 20 17 15 14 12
58 57 56 55 55 55 56 56 56 55 53 52 51 51 52 54 56 59 61 61 61 61 62 63 66 69 68 67 68 69 69 69 68 65 66 69 70 70 69 68 67 65 64 63 64 64 68 75 79 78 76 73 72 72 70 72 73 71 71 69 66 62 56 52 46 42 42 43 43 41 40 38 36 35 31 26 25 25 24 24 23 22 19 16 15 14 14 13
64 63 62 61 60 59 58 57 55 52 50 49 48 48 49 51 55 59 61 63 63 64 65 65 68 69 69 69 69 69 70 72 71 67 66 69 71 72 71 70 69 67 66 65 66 65 67 73 78 78 76 75 75 73 71 72 74 73 74 72 68 65 61 56 50 46 45 45 45 43 39 37 37 37 34 30 28 27 27 26 23 21 18 16 14 14 15 14
71 69 68 67 65 63 59 55 51 48 45 45 45 46 46 48 52 57 60 63 65 66 67 67 68 69 70 71 70 70 71 73 74 72 69 69 71 73 73 72 71 70 68 68 67 67 67 70 76 79 79 78 77 75 72 72 74 76 75 73 71 68 65 60 54 50 47 47 47 45 41 39 38 37 35 33 31 30 30 28 24 21 19 17 15 16 16 15
76 75 74 72 69 64 58 52 47 43 41 41 41 42 44 46 49 54 59 63 66 68 69 69 69 69 71 72 70 70 72 74 77 76 72 70 72 74 75 74 73 72 71 70 70 69 67 68 75 82 82 82 80 77 74 73 75 77 76 74 73 69 67 64 58 53 50 50 49 47 44 42 41 39 36 34 33 32 30 28 26 23 21 19 17 16 13 11
81 80 78 74 69 61 54 48 43 39 37 37 38 39 41 44 47 51 56 61 65 68 70 71 71 71 72 73 72 72 72 75 79 80 75 73 74 76 76 76 75 75 74 73 71 69 67 67 74 83 85 84 82 79 77 75 75 77 77 76 75 70 67 66 63 58 54 53 51 49 46 44 43 42 40 36 34 33 31 31 28 24 22 20 18 16 12 10
85 82 79 72 65 56 49 43 39 36 34 34 35 36 38 41 45 49 53 58 63 67 70 71 73 73 72 74 74 74 73 76 80 81 79 77 77 77 77 78 77 77 76 75 72 70 69 69 74 82 86 85 84 81 79 77 76 77 78 78 76 71 67 66 66 62 58 55 53 51 49 45 44 44 42 37 34 32 31 33 33 28 25 23 21 18 14 12
86 82 76 67 59 51 44 40 36 33 31 31 32 33 35 38 42 46 51 55 60 64 68 71 73 74 74 75 76 75 75 77 80 83 83 82 80 78 79 80 79 79 78 76 74 72 71 72 74 81 86 87 86 84 81 78 77 76 77 77 75 73 70 69 68 64 60 58 55 53 50 45 45 44 41 38 34 31 29 31 34 33 29 26 25 21 16 13
86 79 70 61 53 46 41 36 33 30 28 28 29 31 33 36 39 43 48 53 57 62 66 70 72 74 74 75 75 75 75 76 79 83 87 87 83 80 80 81 82 81 80 79 77 75 74 75 75 78 85 89 88 86 83 80 78 76 76 77 78 77 74 72 70 66 63 61 58 56 53 47 46 44 41 40 38 34 30 30 34 36 32 29 27 23 18 16
82 73 63 55 48 42 38 33 30 28 27 27 28 29 31 34 37 41 45 49 54 59 63 68 71 73 75 75 76 77 76 76 79 83 87 89 86 83 82 82 83 83 83 82 80 78 76 76 77 77 83 88 89 88 85 81 79 77 76 78 80 80 77 74 71 68 66 64 62 59 57 53 50 47 44 42 40 37 34 33 33 36 35 31 28 26 22 18
76 66 57 50 43 38 35 31 28 26 26 27 28 30 31 33 36 39 42 46 51 56 60 64 69 72 74 75 76 78 78 78 81 83 88 91 88 86 84 83 85 85 85 84 82 80 79 79 78 77 81 86 90 90 86 83 81 78 77 78 80 80 79 76 72 71 70 69 65 62 60 58 55 53 49 47 45 42 40 38 34 35 37 35 31 29 25 20
69 60 52 45 40 35 32 29 27 25 26 27 29 31 32 33 35 37 40 44 48 53 56 61 66 69 72 74 77 80 80 79 81 83 87 91 90 89 87 85 86 87 86 86 84 84 83 81 79 79 81 85 89 90 88 86 83 80 81 81 81 81 80 79 77 75 74 72 69 65 63 61 59 57 54 52 50 47 44 42 39 37 38 38 36 34 28 22
63 54 48 41 37 33 29 27 26 26 26 28 30 32 33 33 34 35 38 41 45 50 54 58 62 66 70 74 77 79 79 79 80 83 86 90 92 92 91 88 88 88 88 87 86 86 84 82 82 82 81 82 87 91 91 89 84 83 84 83 81 80 81 83 81 77 76 73 70 67 65 64 62 59 58 56 54 51 48 45 42 40 38 38 39 38 34 27
57 50 45 39 34 30 27 25 26 26 26 29 31 31 32 31 30 32 35 38 43 48 52 56 59 63 67 72 75 77 79 79 81 82 84 89 93 95 94 90 88 87 87 87 85 85 85 85 85 84 82 82 87 92 93 91 87 86 86 82 80 80 82 83 80 77 75 72 70 68 67 65 64 61 60 59 58 56 53 49 46 43 40 38 38 39 38 33
53 47 42 37 31 28 26 26 27 27 28 31 32 31 30 28 27 28 32 36 41 47 51 55 58 61 64 68 72 75 78 80 80 82 84 87 92 96 94 91 88 86 87 88 87 87 88 88 88 85 84 85 86 89 92 92 89 89 88 84 82 82 83 81 79 79 76 72 71 71 69 67 66 65 62 60 59 58 57 55 52 49 46 42 38 37 38 36
50 44 39 35 30 27 26 27 28 29 31 33 34 32 29 25 24 25 29 33 39 45 51 56 58 60 62 66 70 74 77 79 79 81 84 87 91 94 94 92 90 89 89 90 91 91 91 91 90 87 86 86 83 85 90 92 91 91 89 86 85 85 84 81 80 80 76 74 74 75 74 70 69 68 64 62 61 60 60 58 56 54 51 48 42 37 36 35
47 41 36 32 29 26 26 27 28 30 33 35 35 34 31 25 21 23 26 30 36 43 49 55 59 61 62 64 68 71 74 76 76 77 81 86 90 92 93 94 93 91 91 93 94 94 94 94 92 88 87 86 83 84 88 89 90 92 91 88 88 87 83 79 78 77 74 74 76 77 77 74 71 69 67 64 62 62 61 59 58 56 54 52 48 43 38 34
44 37 33 31 27 26 28 28 28 32 35 37 37 35 30 23 18 19 22 27 33 40 47 54 60 63 64 65 67 69 71 72 73 76 80 83 86 89 93 94 93 93 93 95 96 96 95 95 92 88 87 85 84 85 88 89 91 94 94 92 90 88 84 80 78 76 74 75 77 79 79 75 72 70 68 66 64 63 62 60 59 58 56 55 53 49 44 37
42 35 31 29 27 26 27 27 29 34 37 39 39 36 29 21 16 16 19 23 29 36 42 50 57 63 65 67 67 68 69 71 72 75 78 82 84 87 92 94 94 95 97 96 98 98 98 96 94 91 90 87 86 87 88 89 91 95 97 95 92 89 86 83 81 79 78 78 80 81 80 76 73 71 69 68 67 66 65 63 62 60 59 58 55 54 50 45
39 33 29 27 26 26 27 29 32 36 39 40 39 35 28 20 14 13 16 20 25 31 38 45 53 60 65 67 67 66 66 67 71 74 77 81 84 87 93 98 98 100 101 98 98 99 99 98 97 95 93 91 89 89 89 88 91 95 97 95 93 91 89 87 86 84 82 82 82 82 79 76 73 71 70 68 69 70 68 66 65 63 62 61 59 57 55 53
37 31 28 25 25 27 28 30 32 36 39 40 38 34 28 20 14 11 13 17 22 27 33 41 48 56 63 66 67 67 66 67 70 73 76 81 85 90 96 101 104 106 104 100 98 97 97 97 97 96 95 93 92 92 91 92 93 94 95 95 95 94 92 90 89 88 85 84 84 83 80 78 76 74 72 71 72 74 72 70 67 66 65 64 63 60 58 57
35 29 26 25 24 25 27 30 33 36 38 40 39 36 29 20 13 8 8 14 19 24 28 35 42 51 59 64 68 70 68 68 69 73 78 82 87 92 96 100 105 107 104 100 97 95 96 98 99 98 96 94 94 95 94 93 93 92 93 94 95 95 93 92 90 88 86 85 85 84 82 79 77 74 74 75 76 76 74 72 70 69 68 67 66 64 62 60
33 28 25 24 23 25 28 31 34 36 39 41 41 37 30 22 15 8 5 9 15 19 24 30 37 45 53 60 68 72 73 72 71 74 79 84 88 92 94 97 101 102 100 99 97 96 96 99 101 100 98 96 97 98 96 94 93 91 92 93 94 94 92 90 90 88 86 86 86 85 83 80 77 75 73 75 76 74 72 73 73 73 72 70 68 66 64 63
31 26 24 23 23 25 28 31 34 37 40 42 41 38 31 24 17 11 5 6 10 15 20 26 32 39 47 55 64 72 76 76 73 74 79 83 86 88 90 92 94 95 97 98 99 98 98 100 101 100 99 98 98 99 97 94 94 93 93 92 91 89 88 88 89 90 89 90 90 87 85 83 81 78 76 75 75 73 72 73 74 74 74 72 71 68 65 64
30 25 24 23 23 25 28 32 35 37 40 41 42 40 33 26 20 14 8 4 7 12 17 23 29 35 42 51 59 67 74 76 74 75 78 79 80 83 84 85 87 91 96 100 101 101 100 100 102 102 100 99 98 99 96 94 94 94 93 90 88 87 87 88 90 92 93 94 94 91 89 87 83 79 78 77 74 73 75 76 74 74 75 74 72 70 67 64
29 25 22 22 23 24 27 31 34 36 39 42 44 42 36 29 22 18 12 5 4 9 15 20 26 32 38 46 54 62 70 76 78 79 80 78 78 81 82 82 84 89 96 101 104 103 101 99 100 101 101 100 99 99 97 96 96 95 93 92 91 91 90 89 92 95 96 97 97 94 92 91 87 81 80 79 76 73 76 79 77 74 74 74 73 71 68 66
28 24 21 21 22 24 27 31 34 37 41 44 45 44 39 32 26 21 15 9 3 6 12 17 23 29 35 42 48 56 64 73 79 83 83 81 80 81 82 83 85 88 92 97 101 102 101 99 98 99 99 100 100 99 100 99 97 96 94 93 93 94 94 94 95 98 99 100 100 97 94 92 89 85 83 82 80 77 76 79 80 78 75 73 72 71 69 68
26 22 20 20 22 24 27 31 33 37 41 44 46 45 41 35 29 23 18 12 6 4 8 14 19 25 32 38 43 51 60 68 77 84 86 85 82 82 82 82 83 85 89 93 97 100 101 100 100 98 97 99 100 100 101 101 98 96 94 92 92 93 94 96 98 99 99 100 100 99 97 94 90 88 86 84 83 82 79 77 78 79 77 74 72 71 70 69
25 21 19 20 22 24 27 30 32 36 40 43 46 45 42 37 31 26 21 15 9 5 6 11 16 21 27 34 40 46 55 63 72 81 87 87 85 83 82 81 82 84 88 91 95 99 101 100 100 99 98 99 100 100 102 101 99 97 95 94 94 94 95 98 99 99 100 100 100 100 98 95 91 89 88 86 84 85 85 82 79 78 78 76 74 72 71 71
23 19 18 19 21 23 27 30 32 35 38 42 44 45 42 37 32 27 22 18 12 7 6 8 13 17 22 28 35 41 49 57 66 75 83 88 87 85 82 82 84 86 88 90 93 98 100 99 99 100 99 99 98 98 100 101 100 98 96 95 95 95 98 99 98 98 100 100 100 100 98 95 93 91 90 89 88 87 87 86 84 82 79 77 76 75 73 73
21 17 16 18 20 23 27 29 31 33 37 40 43 43 41 37 32 28 23 19 15 9 6 6 9 14 18 23 30 37 43 50 59 68 77 84 87 87 85 83 85 87 87 88 90 94 98 99 100 101 101 99 97 97 97 100 101 99 99 98 97 98 101 100 99 101 102 100 100 100 98 95 94 92 91 91 90 88 87 86 86 84 81 79 78 78 77 76
19 16 15 17 19 22 26 28 30 33 36 39 42 42 40 36 32 28 24 20 16 11 7 6 8 11 15 20 26 33 39 46 52 60 70 78 84 88 88 86 85 86 86 87 88 90 94 98 100 102 102 100 98 98 98 100 102 101 101 100 99 101 103 102 101 103 103 101 101 99 97 95 93 90 90 90 89 87 86 85 86 85 84 82 80 80 80 79
18 15 15 16 17 21 25 27 29 32 35 38 40 41 38 35 31 27 24 21 17 13 9 6 7 10 13 17 22 28 34 41 47 53 61 70 78 85 89 89 88 87 86 87 89 90 92 95 99 101 101 99 98 99 99 100 102 103 103 103 103 104 105 103 101 102 102 101 100 97 94 94 93 90 90 91 89 87 87 86 85 84 84 83 82 82 83 82
17 14 15 15 16 19 24 26 28 31 34 37 39 39 37 33 30 27 23 20 17 14 11 7 5 9 12 15 18 23 29 35 41 47 53 61 70 80 87 91 91 90 89 90 91 92 93 94 96 97 98 98 97 97 98 99 100 102 104 104 105 106 104 102 100 101 102 101 99 97 95 94 93 93 93 92 89 88 89 90 88 85 84 83 82 81 82 83
16 14 15 15 15 19 23 25 28 31 33 36 38 38 36 32 28 26 23 20 17 14 12 9 6 7 10 13 16 20 25 31 36 41 47 54 63 73 82 90 92 92 91 91 93 94 94 93 93 93 95 96 96 96 98 98 99 102 103 103 104 106 105 104 103 102 103 102 100 99 98 96 95 95 96 95 92 91 91 92 91 89 88 87 85 83 82 82
15 13 14 15 15 18 22 25 27 30 33 36 37 37 35 30 27 25 22 19 16 13 12 10 7 5 8 11 14 17 22 27 31 36 42 49 56 65 74 84 90 93 93 93 94 94 93 92 91 90 92 94 95 96 100 101 100 100 103 104 104 105 106 105 105 106 106 104 101 99 98 97 96 95 96 96 96 95 94 94 93 92 91 90 89 88 85 83
Wind_Direction
301 298 295 292 289 286 282 277 273 268 264 260 256 253 251 249 245 242 240 239 237 235 234 232 229 227 226 226 226 224 221 218 217 218 219 219 218 218 218 217 215 211 208 207 207 206 205 205 206 206 203 201 201 201 201 198 194 207 213 204 203 202 201 208 214 207 185 179 179 175 176 183 207 213 212 222 227 243 260 26 55 51 41 33 29 25 24 23
296 293 290 288 286 284 282 279 276 273 268 264 259 255 252 250 248 245 242 239 238 236 234 233 231 228 226 225 225 224 222 219 217 217 218 218 217 217 217 217 215 212 209 207 206 206 205 205 206 207 204 202 200 200 201 198 196 206 209 205 208 209 207 210 218 208 186 182 180 169 172 184 194 209 218 225 233 241 250 274 41 42 39 36 31 26 23 22
297 292 288 285 282 280 278 276 274 273 271 267 263 258 253 250 248 246 244 241 238 237 234 232 231 230 227 226 225 224 223 221 217 216 217 217 216 216 217 216 215 213 209 206 206 206 205 204 206 207 205 203 201 200 201 197 198 207 208 207 209 209 208 212 219 207 191 186 176 162 165 183 197 213 218 227 236 236 247 273 349 37 40 38 32 27 22 21
300 295 290 286 282 279 277 275 272 270 268 266 265 261 257 252 249 247 245 243 240 238 236 233 231 229 228 227 225 225 224 222 219 216 216 216 215 216 216 216 215 213 210 207 206 206 205 204 205 206 205 203 201 200 199 194 195 207 210 208 204 204 209 214 215 205 197 190 175 167 173 186 208 221 218 226 237 238 255 266 263 48 43 40 32 26 21 20
300 296 292 288 283 280 277 275 272 270 267 264 262 261 259 256 252 248 245 244 241 239 237 235 232 229 228 227 226 225 224 223 221 216 214 214 215 215 215 215 214 213 210 207 206 206 205 205 204 205 205 204 202 200 199 195 195 204 208 204 196 194 202 208 206 199 198 194 181 175 182 188 201 218 222 229 237 242 255 251 225 37 37 36 28 22 18 18
299 296 293 290 286 282 279 275 272 270 267 265 262 260 258 256 254 250 247 244 242 240 237 236 234 231 228 227 227 226 224 224 222 217 213 214 215 215 214 214 214 213 210 207 206 205 206 205 204 205 205 204 202 201 199 197 198 202 203 201 198 196 198 202 202 196 194 196 187 182 189 191 194 205 217 226 235 239 245 236 227 304 11 27 21 14 12 14
300 296 294 291 288 285 281 278 275 271 268 265 263 260 257 255 253 251 248 245 243 241 238 236 234 233 230 227 226 226 226 225 223 218 215 214 214 215 214 214 213 213 211 208 206 205 205 205 204 205 205 205 203 202 201 200 200 201 201 203 205 205 202 202 206 199 193 194 190 185 187 194 195 198 207 219 232 231 226 213 207 235 312 3 10 6 5 8
301 297 294 291 288 286 283 280 277 274 271 267 264 261 258 255 252 250 248 245 243 242 239 236 234 232 231 228 226 225 226 227 223 220 217 213 213 214 214 214 213 213 212 209 207 206 206 205 204 204 205 205 204 203 202 202 202 201 201 206 210 208 203 203 208 202 195 192 192 189 186 193 198 199 205 213 224 227 222 214 208 228 274 317 351 355 356 2
304 299 295 292 289 286 284 281 278 276 273 270 266 263 259 256 252 249 246 245 243 242 239 236 234 232 231 230 227 224 225 227 223 220 219 214 212 213 213 214 213 213 213 210 208 206 206 206 204 203 203 204 204 203 203 203 204 202 201 207 210 206 203 205 208 203 197 194 192 191 191 194 197 200 203 205 212 220 228 233 229 241 263 291 324 337 345 354
309 303 298 294 290 287 284 282 279 277 275 272 269 265 261 257 253 249 246 243 241 240 239 236 234 232 230 229 229 226 224 226 224 221 220 217 213 212 213 213 213 212 212 211 209 207 206 206 204 203 202 204 204 203 203 203 204 204 202 206 207 204 202 204 208 203 198 197 193 190 193 200 202 202 205 207 210 215 230 241 241 250 267 290 309 318 328 341
311 307 302 297 292 288 285 283 281 278 276 274 271 268 264 260 255 251 247 243 240 238 238 235 233 232 229 228 228 227 225 225 224 221 221 218 214 212 213 214 213 212 212 211 210 208 207 206 205 203 201 203 205 204 205 205 205 204 203 205 204 205 204 205 208 204 199 199 197 191 190 196 199 201 208 213 215 218 230 238 244 259 277 295 305 306 311 324
313 309 305 300 295 291 287 285 282 280 278 275 272 269 266 263 258 253 248 244 241 237 236 234 233 231 229 227 226 227 227 226 225 222 221 220 216 213 212 213 214 212 212 211 210 209 208 206 205 203 202 203 205 205 205 205 206 205 204 204 203 205 207 206 208 206 202 199 198 195 191 191 191 195 207 215 217 219 229 238 247 263 281 292 299 300 299 310
314 311 308 304 299 294 290 286 284 281 278 275 273 270 267 264 261 255 250 245 241 237 234 232 232 230 228 227 224 225 227 226 225 222 221 221 218 215 212 213 214 213 212 212 211 209 208 207 206 204 202 204 204 204 205 205 206 206 205 204 201 203 206 206 206 207 205 200 197 195 193 193 193 196 206 214 218 219 225 234 244 260 274 282 290 293 288 296
311 309 306 303 299 295 291 287 284 281 278 275 272 270 267 264 261 258 252 247 242 238 234 231 230 229 228 226 223 223 225 226 225 221 220 221 219 216 213 212 214 213 212 212 211 210 208 207 206 204 203 205 204 204 205 205 206 207 206 205 200 199 205 208 207 207 205 202 198 196 195 197 197 196 197 201 209 216 222 227 234 248 260 272 283 284 280 289
311 308 306 302 299 296 293 290 286 282 279 275 271 268 266 263 260 257 253 248 243 238 234 230 228 227 227 225 223 222 223 225 226 222 220 221 220 217 214 212 213 213 212 212 211 210 208 207 206 205 204 205 204 204 206 205 207 207 206 206 202 198 204 208 208 208 206 202 201 200 198 200 199 197 194 192 199 210 224 232 237 246 252 261 273 279 279 284
316 313 309 306 303 300 297 294 291 286 280 275 271 267 263 261 258 254 251 248 243 238 234 230 227 226 225 224 222 221 221 222 224 222 219 220 220 219 215 213 212 212 212 211 212 211 209 208 206 206 206 205 205 206 206 206 207 207 207 208 205 202 203 204 207 211 209 203 202 203 202 205 205 201 200 198 198 208 227 237 244 251 251 254 266 276 276 278
322 318 315 312 309 306 303 300 296 291 284 277 271 267 262 257 254 250 247 245 242 237 234 230 226 224 224 223 222 220 219 221 223 221 219 219 219 219 217 214 212 211 212 211 211 211 209 208 207 207 207 205 205 206 206 207 207 208 208 209 207 205 203 202 203 209 211 205 204 205 205 209 209 204 206 208 205 211 225 235 242 246 247 253 265 273 272 276
327 324 321 318 315 312 309 305 301 295 288 279 272 265 259 254 250 246 243 241 239 236 233 230 226 223 222 223 223 221 219 220 222 220 220 220 219 219 218 215 213 211 211 210 211 211 210 209 208 208 207 206 207 207 207 207 207 208 209 209 208 205 203 202 203 207 209 206 206 207 208 211 211 210 210 209 206 210 221 230 233 238 244 251 262 272 271 276
330 327 325 322 319 315 312 308 303 296 289 281 273 264 256 250 246 242 240 237 235 233 231 228 226 222 220 222 223 221 218 219 221 220 219 220 219 218 218 216 214 212 211 210 211 211 210 210 209 208 208 208 209 208 207 207 207 208 209 209 208 206 205 205 205 207 207 205 206 208 209 210 212 214 211 204 204 208 215 222 227 238 244 241 251 266 268 276
331 329 327 324 321 317 313 308 302 295 287 279 272 265 256 248 242 239 236 234 232 231 229 227 226 222 219 220 222 221 218 217 219 219 217 219 219 218 218 217 215 213 211 211 211 210 210 210 209 208 209 209 210 208 207 208 208 209 210 209 209 207 206 207 205 206 207 205 206 208 207 208 208 208 206 202 204 209 213 220 228 238 235 228 243 258 266 276
332 330 328 325 323 319 315 309 302 294 286 278 271 264 257 248 241 237 234 232 231 229 228 227 225 222 219 219 220 220 219 217 217 218 216 217 218 218 217 217 216 214 212 211 211 210 210 209 208 208 209 210 210 208 207 207 208 209 209 210 210 208 208 208 206 207 207 204 207 208 207 209 208 208 211 209 210 213 216 222 228 231 225 223 237 249 265 279
332 330 328 326 323 320 315 309 303 295 286 277 269 262 256 250 243 238 233 231 230 229 227 226 225 222 219 218 218 218 218 217 217 217 216 215 217 218 217 216 216 215 212 211 211 211 209 209 209 209 209 210 210 208 207 207 208 209 209 210 210 209 210 211 208 208 208 205 208 210 209 210 210 214 219 220 219 221 224 225 228 230 222 219 225 235 259 275
332 330 328 326 323 319 315 309 303 295 286 277 269 262 255 250 245 240 235 231 228 228 227 225 224 222 219 218 217 217 216 216 215 215 215 214 216 217 216 215 215 215 214 212 211 210 209 209 209 209 209 210 211 209 208 208 208 209 209 210 210 209 211 213 212 211 209 207 209 211 210 211 212 215 222 226 227 228 229 228 231 229 217 213 215 224 248 263
332 330 328 326 323 319 314 309 303 295 286 277 268 261 255 249 245 241 237 233 229 227 226 226 224 222 220 218 217 216 215 215 214 213 213 214 214 215 215 215 214 215 214 213 211 210 209 209 210 210 209 210 211 210 208 208 209 209 209 210 210 210 212 213 212 211 210 210 210 211 210 209 211 214 219 222 220 220 223 226 227 223 216 217 218 222 240 249
332 330 328 326 323 319 315 310 304 296 287 277 268 260 254 249 246 241 238 236 232 228 225 225 224 222 220 219 218 216 215 215 214 212 213 213 213 214 215 214 213 213 214 213 211 209 210 210 210 210 209 210 211 210 209 209 210 210 210 211 211 211 212 213 212 210 211 212 211 211 210 209 208 207 212 215 213 212 215 219 222 220 219 221 223 225 232 236
332 330 328 327 323 319 316 311 305 297 288 279 271 263 257 252 247 243 240 237 235 231 226 224 224 222 220 218 218 217 215 214 214 212 213 213 212 212 214 214 214 213 213 213 211 209 210 211 211 210 209 210 211 211 209 209 210 211 211 211 211 212 212 212 212 211 211 212 212 212 211 210 207 203 203 207 209 212 212 215 221 225 225 224 226 228 223 223
332 330 329 327 324 320 317 312 306 298 290 284 277 271 265 259 253 247 243 239 236 234 230 226 224 221 219 218 218 218 215 213 212 211 212 212 211 212 213 213 214 213 212 212 212 210 210 211 211 211 210 210 211 212 210 209 211 211 212 213 213 213 212 212 212 212 212 212 212 212 212 212 210 206 206 208 212 215 216 218 222 228 228 224 228 228 220 220
332 330 329 328 325 322 318 313 307 300 293 288 283 279 274 267 260 252 245 240 237 235 233 229 225 221 219 218 218 218 215 213 212 210 211 211 210 211 212 212 213 213 213 212 211 211 211 211 211 211 211 210 210 211 210 210 211 212 213 214 213 212 212 211 212 213 212 211 211 211 212 214 213 210 211 214 217 217 219 223 224 227 229 227 229 228 222 223
333 331 330 329 326 323 320 314 308 303 298 293 290 287 282 274 266 256 248 240 235 233 232 230 227 222 220 218 218 218 216 214 212 210 211 210 209 210 211 211 212 212 212 212 211 211 211 211 211 212 211 210 210 211 211 210 210 212 214 214 213 213 213 212 212 213 213 212 212 211 212 215 215 214 214 217 217 218 221 225 225 228 232 232 230 228 229 232
333 332 332 331 328 324 320 315 309 306 304 302 300 297 292 283 272 260 249 239 232 229 228 228 227 224 220 218 218 217 217 215 211 209 210 210 209 210 210 211 212 213 212 212 212 212 212 212 211 211 211 211 211 211 211 210 210 213 215 214 215 215 215 214 213 214 215 213 212 213 214 216 217 217 218 217 217 221 225 226 226 231 236 237 232 229 232 236
334 333 333 332 330 326 323 319 315 314 314 312 310 309 303 293 279 262 248 237 229 225 224 225 225 224 222 219 217 217 216 215 211 208 208 209 209 210 210 210 211 211 212 212 211 211 213 213 212 211 211 212 211 211 211 210 210 213 215 214 215 216 216 215 214 214 215 215 214 214 215 217 219 220 220 220 221 225 226 226 229 234 237 238 237 233 233 234
336 334 333 333 332 328 326 323 321 321 321 320 320 319 314 302 283 262 246 235 227 221 219 220 221 222 221 219 217 216 216 214 212 208 208 208 208 209 209 210 210 210 210 210 211 211 212 213 213 211 211 212 212 212 212 211 210 213 214 214 215 217 216 215 214 214 216 217 217 217 215 216 219 221 221 223 224 226 228 228 230 234 235 237 236 235 234 232
336 335 333 334 333 329 328 326 325 326 326 326 328 326 320 307 285 261 245 233 226 220 216 216 218 219 219 219 218 216 215 214 212 209 208 208 208 207 207 209 211 211 210 210 210 211 211 213 213 212 212 212 211 213 213 212 212 213 214 214 216 217 217 216 216 215 216 219 219 219 217 215 217 220 222 225 226 227 229 230 231 232 234 235 235 234 233 227
337 336 334 334 334 332 330 328 330 331 331 332 333 330 324 311 286 261 245 233 226 220 215 213 214 215 216 218 218 216 213 212 211 209 208 208 208 206 207 208 210 211 211 210 210 210 211 213 213 212 213 213 212 213 213 211 212 213 214 214 215 217 216 216 217 216 217 220 221 220 218 216 217 220 222 225 227 228 230 231 231 232 233 235 234 234 231 224
338 337 335 335 335 332 329 330 335 336 336 337 337 333 327 315 290 265 249 236 227 221 215 213 213 214 214 215 217 216 212 208 208 208 207 207 207 206 206 207 209 211 211 210 210 209 210 211 211 211 213 213 212 214 215 213 212 214 214 214 215 216 216 216 216 216 217 220 221 221 219 217 218 220 223 225 226 228 230 231 231 232 233 234 235 236 233 228
338 338 336 336 335 332 333 337 340 339 339 339 338 335 331 322 302 274 252 239 230 222 215 212 212 213 213 214 215 216 214 209 207 207 207 206 206 206 206 206 208 210 210 210 210 210 210 210 210 211 211 212 212 213 215 214 214 215 215 214 214 215 215 215 216 215 216 219 222 221 219 218 218 220 223 225 226 227 229 230 230 231 232 234 236 237 236 233
338 339 338 337 336 335 337 339 340 340 340 340 340 340 338 331 313 280 249 236 229 223 215 210 210 211 213 213 213 214 214 210 207 206 207 206 207 207 207 206 207 209 209 209 210 211 211 211 211 212 212 212 212 213 214 214 214 215 216 214 215 215 215 215 216 216 216 218 221 221 220 219 218 218 221 224 225 226 228 229 229 230 231 233 234 234 235 236
338 339 338 337 337 336 337 340 341 341 341 343 346 346 344 338 326 297 252 231 225 221 214 209 208 209 210 211 212 213 214 213 208 206 206 206 207 208 208 207 209 209 208 208 209 210 211 211 211 212 212 212 213 214 214 214 214 216 217 216 215 216 216 216 217 218 217 219 221 222 221 220 219 220 222 225 226 227 229 230 230 230 231 232 232 233 234 236
339 339 336 337 339 338 340 341 341 341 344 349 351 350 349 345 339 329 279 235 225 219 213 208 206 207 208 209 210 211 212 213 210 207 208 207 208 209 208 208 209 210 210 209 210 210 210 211 211 211 211 212 214 215 214 214 215 216 218 218 216 217 217 217 218 219 219 220 222 223 222 221 220 219 221 225 227 228 229 231 231 231 231 231 232 233 234 235
338 336 334 338 341 340 341 342 341 344 348 352 353 354 355 353 349 346 324 251 228 218 212 209 205 205 206 207 208 209 211 213 211 210 210 210 209 209 209 208 208 209 210 211 211 211 211 211 211 211 211 212 214 216 215 214 215 216 217 218 217 217 217 217 218 219 219 220 221 222 222 221 220 219 219 222 225 227 228 230 231 232 232 232 232 233 235 236
337 333 333 340 342 340 341 342 342 346 350 353 356 358 359 359 356 355 345 288 230 215 209 208 205 203 204 205 207 208 210 212 213 212 213 212 211 211 210 208 208 209 210 210 211 212 212 212 210 210 210 211 214 217 216 215 217 217 217 218 218 218 218 218 217 218 219 220 220 220 221 221 220 220 220 221 224 225 226 228 230 231 231 232 232 233 234 236
335 333 336 340 341 340 341 342 342 345 350 356 359 360 1 2 1 360 354 330 242 213 206 206 206 204 204 205 206 206 208 210 212 213 214 212 211 212 211 208 208 210 211 211 211 212 213 213 213 211 210 210 213 216 216 216 217 218 218 218 218 218 218 219 218 218 218 219 220 220 220 220 219 219 219 221 223 226 228 228 229 230 231 232 233 234 234 235
333 333 337 341 340 340 341 342 343 347 352 357 360 1 2 3 3 2 358 345 293 218 205 204 205 204 205 205 204 205 206 208 210 212 214 213 211 211 211 208 207 209 211 212 213 213 213 213 214 213 212 211 212 215 216 216 217 218 218 219 220 220 219 219 220 219 219 219 220 220 221 221 220 219 219 219 220 224 228 229 229 230 231 232 233 234 235 236
332 332 338 341 341 340 342 343 345 349 354 357 360 1 2 2 2 2 360 352 327 248 210 203 204 205 206 205 203 204 206 207 208 210 212 214 213 211 211 210 209 209 211 212 213 214 214 213 213 214 213 213 213 215 216 216 216 218 219 219 220 221 222 222 222 221 220 220 220 220 220 221 221 220 221 220 219 222 226 229 229 229 230 232 233 234 235 237
332 333 339 341 341 341 342 344 347 351 354 357 359 1 2 2 2 0 359 356 340 292 230 208 205 205 206 206 204 204 206 206 207 209 210 212 214 213 211 210 210 211 212 212 212 213 214 214 214 214 214 214 214 215 217 217 216 217 218 219 220 221 222 224 224 224 223 221 221 222 221 221 221 220 221 222 222 222 224 228 229 230 230 231 232 234 234 236
332 335 339 340 341 342 342 344 348 351 354 357 359 360 1 1 1 359 359 358 349 321 268 226 212 207 206 206 205 205 207 207 208 208 210 211 213 215 213 211 210 211 213 213 213 213 213 213 214 214 214 214 214 215 218 218 217 217 218 219 220 221 223 224 225 226 225 224 223 223 222 222 222 221 221 223 224 224 226 228 230 231 230 230 231 233 234 235
332 335 338 339 342 342 342 344 348 350 354 356 358 359 359 360 360 358 357 357 354 339 299 252 226 214 207 206 207 206 207 208 209 209 209 210 212 214 215 213 212 212 213 214 215 215 214 213 213 214 214 213 213 214 217 219 218 217 218 218 219 221 223 223 224 225 226 225 224 224 223 222 222 223 223 224 225 227 228 229 231 231 230 230 230 232 233 233
331 333 335 338 342 343 342 344 347 349 353 356 358 358 358 358 359 358 356 355 355 350 324 275 241 225 213 209 209 208 207 208 210 210 210 210 211 213 214 214 214 213 213 214 216 217 216 215 214 214 214 214 212 212 214 217 218 217 218 219 219 221 223 223 224 226 226 226 226 225 224 223 223 223 225 225 226 226 227 229 230 231 231 230 230 231 232 233
328 329 333 338 343 343 342 344 346 348 352 356 357 357 357 357 357 357 356 354 353 354 344 304 254 234 223 214 211 211 211 211 210 210 210 211 211 212 213 214 215 214 214 215 216 217 218 217 215 215 215 215 214 214 214 216 217 217 218 218 219 221 222 223 224 226 227 227 227 227 226 225 224 224 225 226 226 226 226 227 229 230 230 230 230 230 231 232
326 326 331 338 344 344 343 344 346 348 351 355 356 356 356 355 355 355 355 354 352 353 352 335 281 245 233 222 215 213 213 213 213 211 210 211 211 212 213 214 215 215 214 214 216 217 218 218 216 215 216 216 216 216 216 217 218 218 219 219 220 221 222 222 224 226 228 228 228 227 227 226 225 224 224 225 226 227 227 228 228 229 229 229 229 229 230 231
325 325 330 337 343 345 345 346 347 347 350 354 355 355 355 354 353 354 354 353 351 349 351 349 322 267 243 230 220 216 215 214 214 213 211 210 211 212 212 214 215 215 215 215 216 217 218 219 217 216 216 216 216 216 217 218 219 220 220 220 221 222 222 222 223 225 227 228 228 228 228 227 226 226 225 225 225 226 228 228 228 228 228 229 230 230 230 230
325 325 329 334 341 346 347 347 347 347 349 353 354 354 353 353 352 352 352 353 352 349 348 349 342 307 261 241 227 219 218 217 215 214 213 212 212 212 213 214 215 216 216 216 217 218 219 219 219 217 217 217 217 217 217 217 218 220 221 221 221 222 222 223 224 225 225 226 227 228 229 229 228 228 228 227 226 227 228 229 229 229 229 230 230 231 231 230